FW3577 Weather Reports


time (UTC)temp
F
wind
direction
speed
knots
gust
knots
rain 1hr
in
rain 24hr
in
rain mn
in
humidity
%
barometer
mb
20260504082000 57 306 0.0 0.0 0.00 0.00 0.00 65 1000.4
20260504081459 58 307 0.0 0.0 0.00 0.00 0.00 65 1000.4
20260504081000 57 303 0.0 0.0 0.00 0.00 0.00 66 1000.5
20260504050459 53 237 0.0 0.0 0.00 0.00 0.00 63 1000.7
20260504050005 53 222 0.0 0.0 0.00 0.00 0.00 62 1000.7
20260504045500 53 236 0.0 0.0 0.00 0.00 0.00 62 1000.7
20260504045001 53 233 0.0 0.0 0.00 0.00 0.00 62 1000.7
20260504044501 53 252 0.0 0.0 0.00 0.00 0.00 62 1000.8
20260504044001 53 217 0.0 0.0 0.00 0.00 0.00 62 1000.9
20260504043500 53 232 0.0 0.0 0.00 0.00 0.00 61 1000.9
20260504042500 53 204 0.0 0.0 0.00 0.00 0.00 61 1001.2
20260504042001 53 237 0.0 0.0 0.00 0.00 0.00 61 1001.3
20260504041500 53 237 0.0 0.0 0.00 0.00 0.00 61 1001.3
20260504041001 53 225 0.0 0.0 0.00 0.00 0.00 61 1001.5
20260504040500 53 216 0.0 0.0 0.00 0.00 0.00 61 1001.5
20260504040001 53 226 0.0 0.0 0.00 0.00 0.00 60 1001.5
20260504035500 53 221 0.0 0.0 0.00 0.00 0.00 59 1001.6
20260504035001 54 248 0.0 0.0 0.00 0.00 0.00 59 1001.7
20260504034000 54 219 0.0 0.0 0.00 0.00 0.00 57 1001.8
20260504033501 54 222 0.0 0.0 0.00 0.00 0.00 56 1001.8
20260504033001 54 229 0.0 0.0 0.00 0.00 0.00 56 1001.9
20260504032500 54 207 0.0 0.0 0.00 0.00 0.00 55 1002.0
20260504032001 55 218 0.0 0.0 0.00 0.00 0.00 54 1002.1
20260504031001 56 217 0.0 0.0 0.00 0.00 0.00 53 1002.2
20260504030501 56 203 0.0 0.0 0.00 0.00 0.00 52 1002.1
20260504030002 56 238 0.0 0.0 0.00 0.00 0.00 51 1002.1
20260504025500 57 232 0.0 0.0 0.00 0.00 0.00 50 1002.3
20260504025001 58 186 0.0 0.0 0.00 0.00 0.00 48 1002.4
20260504024500 58 233 0.0 0.0 0.00 0.00 0.00 48 1002.4
20260504024001 58 216 0.0 0.0 0.00 0.00 0.00 47 1002.4
20260504023001 59 229 0.0 0.0 0.00 0.00 0.00 46 1002.4
20260504022000 60 244 0.0 0.0 0.00 0.00 0.00 45 1002.5
20260504021501 61 212 0.0 0.0 0.00 0.00 0.00 44 1002.5
20260504021001 61 189 0.0 0.0 0.00 0.00 0.00 44 1002.6
20260504020500 61 220 0.0 0.0 0.00 0.00 0.00 43 1002.6
20260504020004 61 199 0.0 0.0 0.00 0.00 0.00 43 1002.7
20260504015500 61 213 0.0 0.0 0.00 0.00 0.00 42 1003.1
20260504015001 62 210 0.0 0.0 0.00 0.00 0.00 42 1003.1
20260504014500 62 219 0.0 0.0 0.00 0.00 0.00 41 1003.2
20260504014000 62 238 0.0 0.0 0.00 0.00 0.00 41 1003.3
20260504013500 63 221 0.0 0.0 0.00 0.00 0.00 41 1003.4
20260504013001 64 233 0.0 0.0 0.00 0.00 0.00 39 1003.6
20260504012501 64 245 0.0 0.0 0.00 0.00 0.00 39 1003.7
20260504012001 65 236 0.0 0.0 0.00 0.00 0.00 37 1003.7
20260504011500 66 228 0.0 0.0 0.00 0.00 0.00 37 1004.0
20260504011001 67 228 0.0 0.0 0.00 0.00 0.00 36 1004.0
20260504010500 67 219 0.0 0.0 0.00 0.00 0.00 36 1004.0
20260504010004 67 236 0.0 0.0 0.00 0.00 0.00 35 1004.1
20260504005500 68 266 0.0 0.0 0.00 0.00 0.00 35 1004.2
20260504005001 68 269 0.0 0.0 0.00 0.00 0.00 34 1004.4
20260504003500 70 283 0.0 0.0 0.00 0.00 0.00 30 1004.7
20260504003001 70 269 0.0 0.0 0.00 0.00 0.00 30 1004.7
20260504002500 70 259 0.0 0.0 0.00 0.00 0.00 30 1004.9
20260504002001 71 243 0.0 0.0 0.00 0.00 0.00 29 1004.8
20260504001500 71 245 0.0 0.0 0.00 0.00 0.00 30 1004.8
20260504001001 71 292 0.0 0.0 0.00 0.00 0.00 29 1004.9
20260504000500 71 289 0.0 0.0 0.00 0.00 0.00 28 1005.0
20260504000002 71 268 0.0 0.0 0.00 0.00 0.00 28 1005.1
20260503235500 71 282 0.0 0.0 0.00 0.00 0.00 27 1005.0
20260503235001 71 252 0.0 0.0 0.00 0.00 0.00 26 1005.1
20260503234500 72 268 0.0 0.0 0.00 0.00 0.00 27 1005.2
20260503234001 72 271 0.0 0.0 0.00 0.00 0.00 26 1005.3
20260503233001 72 294 0.0 0.0 0.00 0.00 0.00 28 1005.2
20260503232500 72 284 0.0 0.0 0.00 0.00 0.00 27 1005.4
20260503232000 72 308 0.0 0.0 0.00 0.00 0.00 24 1005.4
20260503231501 72 280 0.0 0.0 0.00 0.00 0.00 25 1005.5
20260503231001 72 295 0.0 0.0 0.00 0.00 0.00 23 1005.4
20260503230500 72 287 0.0 0.0 0.00 0.00 0.00 24 1005.4
20260503225001 73 291 0.0 0.0 0.00 0.00 0.00 29 1005.8
20260503224500 73 291 0.0 0.0 0.00 0.00 0.00 29 1005.8
20260503224001 72 276 0.0 0.0 0.00 0.00 0.00 28 1005.8
20260503223001 73 295 0.0 0.0 0.00 0.00 0.00 29 1006.1
20260503222501 73 269 0.0 0.0 0.00 0.00 0.00 30 1006.1
20260503222001 73 285 0.0 0.0 0.00 0.00 0.00 30 1006.3
20260503221001 72 281 0.0 0.0 0.00 0.00 0.00 28 1006.3
20260503220500 72 269 0.0 0.0 0.00 0.00 0.00 30 1006.3
20260503215500 72 297 0.0 0.0 0.00 0.00 0.00 28 1006.8
20260503215000 73 255 0.0 0.0 0.00 0.00 0.00 28 1006.8
20260503214500 73 272 0.0 0.0 0.00 0.00 0.00 30 1006.8
20260503214001 72 274 0.0 0.0 0.00 0.00 0.00 29 1006.9
20260503213500 72 227 0.0 0.0 0.00 0.00 0.00 29 1007.0
20260503213001 72 254 0.0 0.0 0.00 0.00 0.00 29 1007.1
20260503212500 72 269 0.0 0.0 0.00 0.00 0.00 27 1007.1
20260503212000 72 299 0.0 0.0 0.00 0.00 0.00 30 1007.4
20260503211001 71 305 0.0 0.0 0.00 0.00 0.00 29 1007.5
20260503210500 71 301 0.0 0.0 0.00 0.00 0.00 32 1007.7
20260503210005 71 329 0.0 0.0 0.00 0.00 0.00 34 1007.7
20260503205500 71 308 0.0 0.0 0.00 0.00 0.00 31 1007.8
20260503205000 71 278 0.0 0.0 0.00 0.00 0.00 30 1007.9
20260503204500 71 298 0.0 0.0 0.00 0.00 0.00 34 1007.9
20260503204001 71 290 0.0 0.0 0.00 0.00 0.00 33 1008.1
20260503203500 71 295 0.0 0.0 0.00 0.00 0.00 31 1008.0
20260503203000 71 305 0.0 0.0 0.00 0.00 0.00 32 1008.3
20260503202459 71 267 0.0 0.0 0.00 0.00 0.00 32 1008.4
20260503202000 71 238 0.0 0.0 0.00 0.00 0.00 33 1008.5
20260503201500 71 307 0.0 0.0 0.00 0.00 0.00 33 1008.6
20260503201000 71 319 0.0 0.0 0.00 0.00 0.00 32 1008.6
20260503200500 71 26 0.0 0.0 0.00 0.00 0.00 35 1008.6
20260503200005 71 302 0.0 0.0 0.00 0.00 0.00 33 1008.9
20260503195500 70 281 0.0 0.0 0.00 0.00 0.00 39 1009.0
20260503195000 70 271 0.0 0.0 0.00 0.00 0.00 35 1009.2
20260503194500 70 319 0.0 0.0 0.00 0.00 0.00 36 1009.2
20260503194001 70 298 0.0 0.0 0.00 0.00 0.00 37 1009.2
20260503193459 69 287 0.0 0.0 0.00 0.00 0.00 35 1009.3
20260503193000 69 336 0.0 0.0 0.00 0.00 0.00 35 1009.3
20260503192459 70 309 0.0 0.0 0.00 0.00 0.00 35 1009.5
20260503191500 70 333 0.0 0.0 0.00 0.00 0.00 36 1009.5
20260503191000 69 356 0.0 0.0 0.00 0.00 0.00 35 1009.5
20260503190459 69 20 0.0 0.0 0.00 0.00 0.00 36 1009.6
20260503190002 69 323 0.0 0.0 0.00 0.00 0.00 34 1009.7
20260503185500 68 297 0.0 0.0 0.00 0.00 0.00 34 1009.8
20260503184459 69 307 0.0 0.0 0.00 0.00 0.00 37 1009.9
20260503184000 68 305 0.0 0.0 0.00 0.00 0.00 38 1010.2
20260503183459 68 290 0.0 0.0 0.00 0.00 0.00 36 1010.3
20260503183000 68 326 0.0 0.0 0.00 0.00 0.00 34 1010.4
20260503182459 68 16 0.0 0.0 0.00 0.00 0.00 36 1010.4
20260503181459 68 331 0.0 0.0 0.00 0.00 0.00 35 1010.7
20260503181000 68 321 0.0 0.0 0.00 0.00 0.00 39 1010.7
20260503180500 68 20 0.0 0.0 0.00 0.00 0.00 38 1010.8
20260503180002 67 317 0.0 0.0 0.00 0.00 0.00 38 1010.9
20260503175001 68 334 0.0 0.0 0.00 0.00 0.00 37 1011.1
20260503174000 67 46 0.0 0.0 0.00 0.00 0.00 34 1011.2
20260503173459 66 349 0.0 0.0 0.00 0.00 0.00 39 1011.4
20260503173000 66 336 0.0 0.0 0.00 0.00 0.00 37 1011.3
20260503172459 66 318 0.0 0.0 0.00 0.00 0.00 38 1011.4
20260503172001 66 328 0.0 0.0 0.00 0.00 0.00 38 1011.4
20260503171500 66 18 0.0 0.0 0.00 0.00 0.00 37 1011.6
20260503171000 65 297 0.0 0.0 0.00 0.00 0.00 38 1011.5
20260503170500 66 300 0.0 0.0 0.00 0.00 0.00 39 1011.7
20260503151000 60 316 0.0 0.0 0.00 0.00 0.00 58 1012.5
20260503131000 48 291 0.0 0.0 0.00 0.00 0.00 80 1012.6
20260503130500 47 303 0.0 0.0 0.00 0.00 0.00 82 1012.5
20260503110500 41 308 0.0 0.0 0.00 0.00 0.00 85 1011.8